This is the latest recevied weather packets stored in our database for station/object N0NB. If no packets are shown the sender has not sent any weather packets the latest 10 day(s).
| Time | Temp. | Humidity | Pressure | Rain* | Wind** | Luminosity | Snow |
|---|---|---|---|---|---|---|---|
| 1778065215 | 6.67° C | 66% | 1015.8 hPa | 0 mm | - | 0 W/m² | - |
| 1778064616 | 6.67° C | 68% | 1015.9 hPa | 0 mm | - | 0 W/m² | - |
| 1778064015 | 7.22° C | 67% | 1015.8 hPa | 0 mm | - | 0 W/m² | - |
| 1778063416 | 7.22° C | 66% | 1015.8 hPa | 0 mm | - | 0 W/m² | - |
| 1778062815 | 7.22° C | 64% | 1015.9 hPa | 0 mm | - | 0 W/m² | - |
| 1778062215 | 7.22° C | 65% | 1015.8 hPa | 0 mm | - | 0 W/m² | - |
| 1778061615 | 7.22° C | 68% | 1015.8 hPa | 0 mm | - | 0 W/m² | - |
| 1778061015 | 7.22° C | 67% | 1015.7 hPa | 0 mm | - | 0 W/m² | - |
| 1778060418 | 7.22° C | 65% | 1015.7 hPa | 0 mm | - | 0 W/m² | - |
| 1778059817 | 7.22° C | 67% | 1015.6 hPa | 0 mm | - | 0 W/m² | - |
| 1778059217 | 7.78° C | 70% | 1015.7 hPa | 0 mm | - | 0 W/m² | - |
| 1778058617 | 7.78° C | 68% | 1015.5 hPa | 0 mm | - | 0 W/m² | - |
| 1778058017 | 7.78° C | 68% | 1015.3 hPa | 0 mm | - | 0 W/m² | - |
| 1778057417 | 8.33° C | 65% | 1015.2 hPa | 0 mm | - | 0 W/m² | - |
| 1778056817 | 8.33° C | 61% | 1015.1 hPa | 0 mm | - | 0 W/m² | - |
| 1778056217 | 8.89° C | 60% | 1014.7 hPa | 0 mm | - | 0 W/m² | - |
| 1778055617 | 8.89° C | 56% | 1015.2 hPa | 0 mm | - | 0 W/m² | - |
| 1778055017 | 8.33° C | 55% | 1014.9 hPa | 0 mm | - | 0 W/m² | - |
| 1778054417 | 7.78° C | 64% | 1014.9 hPa | 0 mm | - | 0 W/m² | - |
| 1778053817 | 8.33° C | 70% | 1014.9 hPa | 0 mm | - | 0 W/m² | - |
| 1778053217 | 8.33° C | 64% | 1014.8 hPa | 0 mm | - | 0 W/m² | - |
| 1778052617 | 8.33° C | 65% | 1014.8 hPa | 0 mm | - | 0 W/m² | - |
| 1778052017 | 8.89° C | 64% | 1014.9 hPa | 0 mm | - | 0 W/m² | - |
| 1778051416 | 8.89° C | 59% | 1014.9 hPa | 0 mm | - | 0 W/m² | - |
| 1778050816 | 9.44° C | 54% | 1014.7 hPa | 0 mm | - | 0 W/m² | - |
* Rain latest hour (hover to see other rain measurements)
** Current wind speed in m/s (hover to see current wind gust speed)